This is the latest recevied weather packets stored in our database for station/object WA1TYB-13. If no packets are shown the sender has not sent any weather packets the latest 10 day(s).
| Time | Temp. | Humidity | Pressure | Rain* | Wind** | Luminosity | Snow |
|---|---|---|---|---|---|---|---|
| 1777576126 | 14.44° C | 26% | 1024 hPa | 0 mm | - | 648 W/m² | - |
| 1777575821 | 13.89° C | 28% | 1024.1 hPa | 0 mm | - | 660 W/m² | - |
| 1777575518 | 13.89° C | 30% | 1024.3 hPa | 0 mm | - | 663 W/m² | - |
| 1777575213 | 13.89° C | 27% | 1024.4 hPa | 0 mm | - | 658 W/m² | - |
| 1777574910 | 14.44° C | 29% | 1024.5 hPa | 0 mm | - | 659 W/m² | - |
| 1777574606 | 13.89° C | 30% | 1024.3 hPa | 0 mm | - | 646 W/m² | - |
| 1777574303 | 13.89° C | 31% | 1024.5 hPa | 0 mm | - | 642 W/m² | - |
| 1777573998 | 13.33° C | 33% | 1024.6 hPa | 0 mm | - | 655 W/m² | - |
| 1777573693 | 13.33° C | 33% | 1024.8 hPa | 0 mm | - | 645 W/m² | - |
| 1777573390 | 13.89° C | 36% | 1024.9 hPa | 0 mm | - | 602 W/m² | - |
| 1777573085 | 13.33° C | 37% | 1024.8 hPa | 0 mm | - | 584 W/m² | - |
| 1777572783 | 12.78° C | 38% | 1024.8 hPa | 0 mm | - | 617 W/m² | - |
| 1777572483 | 12.78° C | 42% | 1025 hPa | 0 mm | - | 657 W/m² | - |
| 1777572179 | 12.78° C | 42% | 1024.9 hPa | 0 mm | - | 690 W/m² | - |
| 1777571874 | 12.22° C | 44% | 1025 hPa | 0 mm | - | 669 W/m² | - |
| 1777571570 | 11.67° C | 42% | 1025 hPa | 0 mm | - | 674 W/m² | - |
| 1777571267 | 12.22° C | 46% | 1025.2 hPa | 0 mm | - | 681 W/m² | - |
| 1777570963 | 12.22° C | 45% | 1025.2 hPa | 0 mm | - | 668 W/m² | - |
| 1777570659 | 12.22° C | 47% | 1025.1 hPa | 0 mm | - | 656 W/m² | - |
| 1777570356 | 12.78° C | 43% | 1025.4 hPa | 0 mm | - | 668 W/m² | - |
| 1777570051 | 12.22° C | 41% | 1025.4 hPa | 0 mm | - | 683 W/m² | - |
| 1777569747 | 11.11° C | 44% | 1025.2 hPa | 0 mm | - | 674 W/m² | - |
| 1777569443 | 11.67° C | 43% | 1025.1 hPa | 0 mm | - | 672 W/m² | - |
| 1777569140 | 11.11° C | 44% | 1025.3 hPa | 0 mm | - | 677 W/m² | - |
| 1777568837 | 11.11° C | 47% | 1025.3 hPa | 0 mm | - | 648 W/m² | - |
* Rain latest hour (hover to see other rain measurements)
** Current wind speed in m/s (hover to see current wind gust speed)